Regional Weather Roundup
Issued by NWS Charleston, WV

Home | Current Version | Previous Version | Text Only | Print | Product List | Glossary Off
Versions: 1 2 3 4 5 6 7 8 9 10 11 12 13 14 15 16 17 18 19 20 21 22 23 24 25 26 27

000
ASUS41 KRLX 250610
RWRRLX
West Virginia Regional Weather Roundup
National Weather Service Charleston WV
200 AM EDT MON SEP 25 2017

Note: "fair" indicates few or no clouds below 12,000 feet with no
significant weather and/or obstructions to visibility.

WVZ003-250700-
Northern Panhandle of West Virginia

CITY           SKY/WX    TMP DP  RH WIND       PRES   REMARKS
WHEELING       PTCLDY    69  64  84 CALM      30.09F
$$

WVZ009-250700-
Northwest West Virginia

CITY           SKY/WX    TMP DP  RH WIND       PRES   REMARKS
PARKERSBURG    PTCLDY    67  65  93 CALM      30.08F
$$

WVZ006-250700-
Western West Virginia

CITY           SKY/WX    TMP DP  RH WIND       PRES   REMARKS
HUNTINGTON     CLEAR     63  61  93 CALM      30.04F
$$

WVZ015-250700-
West Central West Virginia

CITY           SKY/WX    TMP DP  RH WIND       PRES   REMARKS
CHARLESTON     MOCLDY    66  63  90 N3        30.05F
$$

WVZ022-031-250700-
North Central West Virginia

CITY           SKY/WX    TMP DP  RH WIND       PRES   REMARKS
CLARKSBURG     CLEAR     65  63  93 CALM      30.09S
MORGANTOWN     CLEAR     68  63  84 CALM      30.11S
$$

WVZ025-035-042-045-250700-
Southern West Virginia

CITY           SKY/WX    TMP DP  RH WIND       PRES   REMARKS
BECKLEY        PTCLDY    65  55  70 SE3       30.14F
LOGAN            N/A     68  63  83 CALM      30.08S
BLUEFIELD      PTCLDY    65  54  67 E3        30.16F
LEWISBURG      PTCLDY    60  57  89 CALM      30.14F
$$

WVZ047-250700-
Northern Mountains of West Virginia

CITY           SKY/WX    TMP DP  RH WIND       PRES   REMARKS
ELKINS         FOG       56  53  90 CALM      30.15S VSB 3/4
$$

WVZ052-250700-
Eastern Panhandle of West Virginia

CITY           SKY/WX    TMP DP  RH WIND       PRES   REMARKS
MARTINSBURG    CLEAR     64  62  93 CALM      30.06S FOG
PETERSBURG     PTCLDY    63  63  98 CALM      30.11S FOG
$$




USA.gov is the U.S. government's official web portal to all federal, state and local government web resources and services.